     2.10           OBSERVATION DATA    G (GPS)             RINEX VERSION / TYPE
teqc 2002Apr3 Duncan Agnew 20050511 23:58:21UTC             PGM / RUN BY / DATE
OSX 5.3|G3|cc|OSX 5.3+|G3+                                  COMMENT
BIT 2 OF LLI FLAGS DATA COLLECTED UNDER A/S CONDITION       COMMENT
IVPN 115                                                    MARKER NAME
6892                                                        MARKER NUMBER
Tim Davis Nolte Engineering                                 OBSERVER / AGENCY
220136892 TRIMBLE 4800 NP 1.20 / SP 1.43                    REC # / TYPE / VERS
N/A TRM4800                                                 ANT # / TYPE
 -2304091.0000 -4849397.0000  3431520.0000                  APPROX POSITION XYZ
        2.0000        0.0000        0.0000                  ANTENNA: DELTA H/E/N
     1     1                                                WAVELENGTH FACT L1/2
     7    C1    L1    L2    P1    P2    S1    S2            # / TYPES OF OBSERV
SNR is mapped to RINEX snr flag value [1-9]                 COMMENT
L1: 3 -> 1; 8 -> 5; 40 -> 9                                 COMMENT
L2: 1 -> 1; 5 -> 5; 60 -> 9                                 COMMENT
  2004     6    29    15    22   50.0000000     GPS         TIME OF FIRST OBS
                                                            END OF HEADER
 04  6 29 15 22 50.0000000  0  8G 6G15G16G18G21G22G26G29
  20985870.1074      99555.44959     68015.52358                  20985868.2784
        51.0004         43.5004
  23061421.1594     -50340.85959    -33329.81957                  23061419.3894
        45.5004         31.0004
  23714420.7714      28613.59859     17466.13757                  23714418.1454
        38.7504         27.2504
  20629792.7984       3674.48459      2438.02458                  20629789.0264
        51.2504         45.7504
  20758292.3314       6922.21959      4577.48758                  20758288.6584
        52.7504         43.5004
  22301640.6084     -49685.04759    -34184.15057                  22301635.8594
        49.7504         37.5004
  21832331.7394      68216.53959     46660.02657                  21832329.5014
        48.0004         37.7504
  23028148.1554      93899.64859     62006.52157                  23028146.0684
        45.7504         31.5004
 04  6 29 15 23  0.0000000  0  8G 6G15G16G18G21G22G26G29
  20991470.9024     128987.00449     90949.19348                  20991469.0384
        51.2504         43.5004
  23058562.2324     -65363.32049    -45035.61247                  23058560.3234
        45.5004         30.5004
  23716234.4614      38147.32849     24895.01647                  23716232.5084
        40.7504         27.7504
  20629983.3914       4676.07449      3218.47748                  20629980.0364
        51.2504         45.5004
  20758653.8894       8821.39149      6057.35648                  20758649.7174
        52.5004         43.5004
  22298798.9314     -64617.62949    -45819.94247                  22298793.7114
        50.0004         37.5004
  21836172.8514      88402.12149     62389.04847                  21836170.5804
        47.0004         37.5004
  23033398.7924     121493.59849     83508.25647                  23033397.2164
        46.0004         30.7504
 04  6 29 15 23 10.0000000  0  8G 6G15G16G18G21G22G26G29
  20997078.7614     158455.73849    113911.84048                  20997076.6154
        50.5004         43.5004
  23055701.8834     -80394.48049    -56748.19547                  23055700.1084
        45.2504         30.5004
  23718057.0714      47724.43449     32357.71547                  23718055.1814
        40.5004         27.5004
  20630180.3654       5710.70349      4024.68048                  20630176.9694
        51.7504         46.0004
  20759016.8694      10727.77349      7542.85548                  20759012.2854
        52.7504         43.7504
  22295961.7334     -79527.05149    -57437.65447                  22295956.9184
        49.5004         36.7504
  21840025.2874     108647.14549     78164.39047                  21840023.3874
        47.5004         38.0004
  23038657.5024     149127.64849    105041.29247                  23038655.6124
        45.2504         29.5004
 04  6 29 15 23 20.0000000  0  8G 6G15G16G18G21G22G26G29
  21002700.5484     187999.47749    136932.91448                  21002698.1394
        50.7504         43.7504
  23052847.0804     -95396.50049    -68438.09447                  23052845.4244
        45.2504         30.5004
  23719895.1474      57382.68849     39883.58147                  23719892.6344
        41.0004         28.2504
  20630390.7804       6816.21149      4886.10848                  20630387.3774
        51.5004         46.0004
  20759388.1314      12679.27749      9063.48448                  20759384.0144
        52.7504         43.7504
  22293136.2734     -94375.43749    -69007.82547                  22293131.2344
        49.0004         37.0004
  21843896.4294     128989.31649     94015.41347                  21843894.1224
        46.7504         37.5004
  23043930.6814     176839.72749    126635.08847                  23043929.4224
        45.0004         31.2504
 04  6 29 15 23 30.0000000  0  8G 6G15G16G18G21G22G26G29
  21008341.2264     217641.73849    160030.77448                  21008339.1744
        51.2504         43.2504
  23050002.1894    -110345.67249    -80086.78747                  23050000.9644
        45.0004         29.7504
  23721752.8814      67145.75049     47491.18047                  23721750.2974
        41.0004         27.0004
  20630618.9204       8016.19949      5821.16848                  20630616.0124
        51.5004         45.7504
  20759772.4334      14699.61749     10637.77448                  20759768.2574
        53.0004         44.0004
  22290327.0814    -109139.04749    -80511.94147                  22290322.0284
        49.7504         37.5004
  21847790.5804     149452.35549    109960.64147                  21847788.2784
        47.7504         37.7504
  23049224.5484     204653.38349    148308.07947                  23049222.1834
        45.5004         30.5004
 04  6 29 15 23 40.0000000  0  8G 6G15G16G18G21G22G26G29
  21014003.3154     247395.90649    183215.82048                  21014000.9914
        51.2504         43.5004
  23047170.0264    -125228.64849    -91683.90047                  23047168.1324
        45.0004         30.5004
  23723633.1104      77026.87949     55190.72147                  23723630.9314
        39.2504         27.7504
  20630867.7654       9324.06649      6840.27348                  20630864.7424
        52.0004         45.7504
  20760172.7404      16802.07049     12276.04348                  20760168.6364
        52.7504         43.5004
  22287536.1014    -123804.53149    -91939.59947                  22287531.2914
        49.7504         37.7504
  21851710.0724     170049.42249    126010.29247                  21851708.0544
        47.7504         37.7504
  23054538.6404     232581.88749    170070.53047                  23054536.9254
        46.0004         30.7504
 04  6 29 15 23 50.0000000  0  8G 6G15G16G18G21G22G26G29
  21019687.8014     277266.51249    206491.60748                  21019685.3464
        51.0004         43.5004
  23044351.2844    -140040.77749   -103225.82247                  23044349.8474
        45.2504         30.0004
  23725537.0614      87030.70749     62985.90847                  23725534.6214
        40.2504         29.0004
  20631137.8834      10744.40649      7947.02948                  20631134.5824
        49.5004         45.7504
  20760589.2284      18991.42649     13982.01248                  20760584.7014
        51.2504         43.7504
  22284764.9464    -138367.32049   -103287.22647                  22284760.2734
        49.7504         38.0004
  21855655.9524     190785.28949    142168.10547                  21855653.8254
        46.0004         38.5004
  23059875.7404     260629.87949    191926.09847                  23059873.9984
        45.7504         31.0004
 04  6 29 15 24  0.0000000  0  8G 6G15G16G18G21G22G26G29
  21025393.8114     307253.57849    229858.14748                  21025391.6974
        51.5004         43.0004
  23041545.7614    -154781.94149   -114712.43047                  23041544.4434
        44.5004         29.5004
  23727463.8074      97157.35249     70876.79047                  23727460.9674
        41.2504         27.7504
  20631429.9224      12277.34049      9141.52948                  20631426.4024
        48.7504         46.0004
  20761022.5894      21267.80149     15755.80748                  20761018.2294
        50.2504         43.7504
  22282013.3494    -152827.17649   -114554.63147                  22282008.4904
        49.7504         38.0004
  21859627.9574     211659.87549    158434.00247                  21859625.6304
        46.2504         38.2504
  23065235.8614     288797.34849    213874.77647                  23065234.0604
        45.5004         31.2504
 04  6 29 15 24 10.0000000  0  8G 6G15G16G18G21G22G26G29
  21031121.9034     337354.78949    253313.61748                  21031119.9014
        51.0004         43.5004
  23038754.1994    -169454.52749   -126145.62547                  23038752.1034
        43.7504         29.0004
  23729413.4554     107404.29749     78861.44347                  23729411.3164
        40.5004         26.0004
  20631742.6654      13920.37949     10421.81048                  20631739.3024
        50.5004         46.0004
  20761471.5734      23628.84849     17595.58448                  20761467.4724
        51.5004         44.0004
  22279280.8624    -167186.46549   -125743.68747                  22279276.2264
        49.5004         37.7504
  21863626.4624     232670.83249    174806.16847                  21863624.3054
        47.5004         37.7504
  23070618.2244     317081.85249    235914.64947                  23070616.9344
        46.2504         31.5004
 04  6 29 15 24 20.0000000  0  8G 6G15G16G18G21G22G26G29
  21036871.2694     367566.94549    276855.53248                  21036869.2514
        50.7504         42.7504
  23035975.0624    -184061.63749   -137527.76347                  23035973.1464
        41.5004         30.0004
  23731386.2814     117768.52049     86937.42247                  23731382.5204
        41.0004         27.0004
  20632075.4274      15670.45349     11785.49648                  20632072.0684
        51.2504         45.7504
  20761936.6194      26071.40649     19498.85948                  20761932.2664
        52.2504         44.0004
  22276567.1194    -181448.23049   -136856.74747                  22276562.9244
        48.7504         38.0004
  21867650.2054     253814.93449    191282.08047                  21867647.7294
        46.7504         37.5004
  23076022.0824     345480.14149    258043.15647                  23076020.4344
        45.7504         32.2504
 04  6 29 15 24 30.0000000  0  8G 6G15G16G18G21G22G26G29
  21042641.0414     397888.53549    300482.73048                  21042639.0794
        51.5004         43.0004
  23033207.0844    -198604.74249   -148860.07647                  23033205.5994
        40.0004         31.0004
  23733380.7374     128248.42649     95103.59047                  23733377.1914
        41.0004         27.5004
  20632428.6944      17525.95349     13231.34248                  20632424.9044
        51.2504         46.0004
  20762416.7134      28594.09449     21464.59548                  20762412.3724
        52.2504         44.0004
  22273870.9364    -195613.94149   -147894.94647                  22273866.8924
        47.5004         38.2504
  21871698.3214     275090.79749    207860.67547                  21871696.5474
        47.0004         37.7504
  23081447.8414     373990.69149    280259.18647                  23081445.7204
        46.5004         31.5004
 04  6 29 15 24 40.0000000  0  8G 6G15G16G18G21G22G26G29
  21048431.2194     428314.93849    324191.60048                  21048429.0234
        51.2504         43.0004
  23030450.7924    -213088.26649   -160145.92547                  23030449.7384
        39.0004         30.5004
  23735395.6804     138839.54749    103356.40547                  23735392.6384
        40.0004         26.5004
  20632801.2554      19482.44949     14755.89348                  20632797.5944
        51.2504         46.5004
  20762911.1314      31192.50049     23489.32748                  20762907.1304
        53.0004         43.7504
  22271193.3314    -209688.10949   -158861.83347                  22271188.6724
        48.0004         38.7504
  21875771.5514     296493.73449    224538.27847                  21875769.0114
        46.7504         37.5004
  23086893.1254     402609.02349    302559.15447                  23086891.7494
        46.0004         31.5004
 04  6 29 15 24 50.0000000  0  8G 6G15G16G18G21G22G26G29
  21054239.9754     458840.62949    347977.84148                  21054237.7254
        51.7504         43.2504
  23027704.3874    -227517.71949   -171389.64447                  23027704.0294
        40.5004         31.5004
  23737431.7424     149536.29749    111691.51247                  23737427.9504
        40.7504         27.5004
  20633191.2694      21534.46549     16354.85848                  20633187.8394
        50.5004         45.7504
  20763419.2314      33861.07849     25568.73148                  20763414.7604
        52.5004         44.0004
  22268531.3604    -223676.25849   -169761.69147                  22268526.5264
        49.2504         38.2504
  21879867.5584     318018.29349    241310.66147                  21879865.3084
        45.2504         38.2504
  23092358.5074     431329.56649    324938.78647                  23092357.2744
        46.0004         30.5004
 04  6 29 15 25  0.0000000  0  8G 6G15G16G18G21G22G26G29
  21060067.4474     489462.97349    371839.39848                  21060064.4914
        52.0004         43.5004
  23024969.0284    -241895.73049   -182593.28147                  23024967.9734
        43.5004         30.5004
  23739486.7644     160336.08649    120106.92147                  23739483.1044
        41.7504         27.2504
  20633599.6464      23679.35949     18026.20748                  20633596.1214
        50.0004         46.0004
  20763939.3944      36597.22349     27700.77848                  20763935.5184
        53.2504         44.0004
  22265885.0944    -237580.94949   -180596.50947                  22265880.7274
        50.0004         37.5004
  21883985.8484     339661.85949    258175.75947                  21883983.2214
        44.0004         37.7504
  23097843.0194     460149.53549    347395.92147                  23097841.5624
        45.0004         30.5004
 04  6 29 15 25 10.0000000  0  8G 6G15G16G18G21G22G26G29
  21065912.3534     520179.24249    395774.13848                  21065909.9004
        51.2504         43.2504
  23022242.2674    -256225.00449   -193758.96347                  23022241.2334
        45.0004         30.5004
  23741560.2664     171236.12549    128600.45247                  23741557.3604
        41.5004         28.0004
  20634025.0614      25914.39149     19767.78648                  20634021.9424
        51.5004         46.0004
  20764472.8864      39398.24249     29883.38348                  20764468.3224
        52.5004         44.2504
  22263255.0044    -251404.78149   -191368.33347                  22263249.8474
        50.5004         38.2504
  21888126.4944     361421.62149    275131.41447                  21888124.5424
        46.7504         37.7504
  23103346.1944     489066.38349    369928.50647                  23103344.0974
        45.5004         31.0004
 04  6 29 15 25 20.0000000  0  8G 6G15G16G18G21G22G26G29
  21071774.6004     550985.75449    419779.21948                  21071772.6904
        51.0004         43.0004
  23019524.6884    -270509.07849   -204889.38247                  23019523.3984
        45.7504         30.5004
  23743653.3624     182232.74649    137169.24547                  23743649.8824
        39.7504         26.5004
  20634466.8704      28235.89549     21576.74748                  20634463.5174
        49.0004         46.0004
  20765017.1794      42260.57849     32113.77848                  20765012.9304
        49.5004         43.7504
  22260639.4104    -265151.40649   -202079.97547                  22260634.0614
        50.2504         38.7504
  21892288.9384     383293.95749    292174.79047                  21892286.6154
        45.0004         37.7504
  23108865.9534     518076.17249    392533.54047                  23108864.0944
        44.5004         30.7504
 04  6 29 15 25 30.0000000  0  8G 6G15G16G18G21G22G26G29
  21077653.8274     581879.65249    443852.36548                  21077651.7154
        51.0004         44.0004
  23016814.2914    -284750.69149   -215986.76447                  23016812.6184
        45.7504         31.0004
  23745764.4274     193323.22749    145811.15947                  23745760.7124
        39.5004         26.7504
  20634924.4204      30641.11749     23450.95248                  20634920.6594
        47.5004         46.0004
  20765573.2874      45181.50849     34389.81948                  20765568.9474
        48.0004         44.2504
  22258037.1074    -278823.50449   -212733.55347                  22258032.5634
        50.7504         38.2504
  21896471.9684     405275.97749    309303.61647                  21896469.9014
        46.2504         38.0004
  23114404.0144     547176.21949    415208.89247                  23114401.8304
        45.7504         30.2504
 04  6 29 15 25 40.0000000  0  8G 6G15G16G18G21G22G26G29
  21083549.3544     612860.52349    467993.29648                  21083546.8314
        51.7504         43.2504
  23014111.9514    -298950.30149   -227051.38547                  23014110.8544
        45.5004         31.0004
  23747892.8354     204507.09849    154525.85247                  23747888.8394
        41.2504         26.5004
  20635397.7614      33129.55949     25389.98448                  20635394.3204
        47.5004         46.0004
  20766140.0414      48160.65649     36711.22548                  20766136.1064
        48.0004         44.0004
  22255449.2864    -292421.52349   -223329.40647                  22255445.0474
        50.0004         38.5004
  21900676.3364     427367.25449    326517.59447                  21900673.7374
        46.7504         38.0004
  23119958.3664     576365.93049    437954.11147                  23119956.5454
        45.2504         30.5004
 04  6 29 15 25 50.0000000  0  8G 6G15G16G18G21G22G26G29
  21089461.1444     643928.61749    492202.19348                  21089458.7734
        52.0004         43.0004
  23011418.5204    -313107.56649   -238082.99647                  23011416.5714
        45.5004         31.2504
  23750038.2574     215784.57149    163313.54147                  23750034.9194
        40.5004         27.0004
  20635887.3614      35701.55149     27394.13348                  20635883.8964
        47.7504         46.0004
  20766718.2204      51198.33249     39078.24648                  20766713.8884
        48.5004         44.0004
  22252875.8464    -305945.19149   -233867.31847                  22252871.6334
        50.7504         38.2504
  21904900.1764     449567.98849    343816.85647                  21904898.3664
        46.7504         37.7504
  23125529.7274     605645.66049    460769.47847                  23125528.7104
        45.2504         30.2504
 04  6 29 15 26  0.0000000  0  8G 6G15G16G18G21G22G26G29
  21095388.9534     675079.66049    516475.73048                  21095386.7274
        51.5004         42.5004
  23008731.3864    -327226.71549   -249084.93147                  23008729.9364
        46.2504         31.5004
  23752201.3114     227151.44149    172170.79047                  23752197.5834
        41.5004         26.7504
  20636391.7464      38352.80949     29460.04748                  20636388.2564
        49.5004         45.7504
  20767306.4354      54290.40249     41487.65148                  20767302.3354
        50.7504         44.0004
  22250315.8124    -319398.64149   -244350.52447                  22250310.9084
        50.7504         38.0004
  21909145.5094     471873.98049    361198.14347                  21909142.9174
        46.5004         37.5004
  23131118.1694     635010.99649    483651.55447                  23131116.3394
        45.5004         30.2504
 04  6 29 15 26 10.0000000  0  8G 6G15G16G18G21G22G26G29
  21101331.5624     706308.85949    540810.15348                  21101329.6264
        51.5004         43.0004
  23006051.1544    -341312.52049   -260060.87047                  23006049.1644
        45.7504         31.0004
  23754380.8124     238602.90649    181093.97947                  23754376.9374
        42.5004         27.0004
  20636910.9064      41078.69549     31584.10548                  20636906.7234
        50.5004         46.0004
  20767904.4264      57432.03949     43935.66848                  20767900.1234
        52.0004         43.7504
  22247768.5814    -332786.60949   -254782.71447                  22247763.5524
        50.5004         38.2504
  21913409.2294     494280.43449    378657.70147                  21913407.0124
        45.5004         37.7504
  23136721.7584     664457.16449    506596.58747                  23136720.1554
        45.5004         30.5004
 04  6 29 15 26 20.0000000  0  8G 6G15G16G18G21G22G26G29
  21107290.0754     737618.64549    565207.38648                  21107287.9164
        50.7504         43.0004
  23003377.2284    -355362.38749   -271008.83447                  23003375.4524
        46.0004         31.0004
  23756575.8324     250141.44149    190085.05847                  23756573.1294
        40.2504         27.7504
  20637443.9554      43881.69149     33768.25548                  20637440.4634
        50.5004         46.0004
  20768512.0804      60625.92249     46424.41548                  20768508.1664
        51.0004         44.0004
  22245233.2494    -346106.52349   -265161.85847                  22245228.8944
        50.2504         38.2504
  21917692.7544     516789.83649    396197.49047                  21917690.5544
        46.0004         37.5004
  23142341.1694     693986.66449    529606.58347                  23142339.0194
        45.7504         30.2504
 04  6 29 15 26 30.0000000  0  8G 6G15G16G18G21G22G26G29
  21113262.9174     769006.04349    589665.07348                  21113260.7774
        51.2504         43.5004
  23000710.3744    -369379.29349   -281931.07247                  23000707.9674
        45.7504         32.0004
  23758788.7214     261764.06649    199141.59547                  23758785.1394
        41.2504         27.0004
  20637991.4454      46758.71149     36010.08548                  20637987.5864
        47.7504         46.0004
  20769129.4704      63868.97749     48951.45248                  20769125.3624
        48.2504         43.7504
  22242711.0504    -359361.36349   -275490.29747                  22242706.6604
        50.2504         38.0004
  21921994.8354     539399.10549    413815.09447                  21921992.3534
        43.7504         37.5004
  23147975.4754     723596.46949    552679.15947                  23147973.9434
        45.5004         31.0004
 04  6 29 15 26 40.0000000  0  8G 6G15G16G18G21G22G26G29
  21119250.7184     800473.07049    614184.81748                  21119248.4614
        51.0004         43.5004
  22998049.3644    -383361.09449   -292825.97247                  22998046.8194
        45.7504         30.2504
  23761015.5344     273472.84449    208265.33047                  23761012.8724
        40.0004         26.2504
  20638553.7664      49711.93449     38311.29748                  20638549.9814
        47.5004         45.7504
  20769756.1564      67163.39549     51518.54148                  20769751.7444
        47.7504         43.2504
  22240201.4514    -372548.93749   -285766.32747                  22240196.4204
        50.5004         38.0004
  21926316.7274     562110.41049    431512.20347                  21926314.5064
        45.7504         37.7504
  23153625.9694     753288.52049    575815.82447                  23153624.1394
        46.0004         30.7504
 04  6 29 15 26 50.0000000  0  8G 6G15G16G18G21G22G26G29
  21125254.2944     832022.57449    638768.84948                  21125252.2624
        51.5004         43.0004
  22995396.2644    -397304.91449   -303691.28547                  22995393.6054
        45.7504         30.5004
  23763261.5984     285270.63349    217458.39147                  23763257.6034
        40.7504         26.5004
  20639130.5284      52744.16049     40674.07548                  20639126.7764
        47.5004         45.7504
  20770393.1574      70512.00849     54127.83848                  20770389.0014
        48.0004         43.7504
  22237705.4094    -385666.45749   -295987.76747                  22237700.6424
        50.2504         38.5004
  21930658.4854     584926.50049    449290.97747                  21930656.3154
        45.7504         38.0004
  23159292.0884     783065.73849    599018.82547                  23159290.4404
        45.2504         31.0004
 04  6 29 15 27  0.0000000  0  8G 6G15G16G18G21G22G26G29
  21131273.7834     863653.33649    663416.18048                  21131271.5934
        51.5004         43.5004
  22992749.4234    -411211.95749   -314527.93247                  22992747.3054
        45.5004         31.0004
  23765523.0234     297156.05949    226719.77347                  23765519.6464
        40.0004         27.0004
  20639722.4734      55854.15649     43097.44448                  20639719.0964
        47.7504         45.7504
  20771040.9434      73913.69149     56778.50048                  20771036.4314
        48.0004         43.2504
  22235222.4324    -398715.02749   -306155.48047                  22235217.9434
        51.2504         38.7504
  21935020.3104     607846.19949    467150.46547                  21935017.6674
        44.5004         38.0004
  23164974.4814     812926.74649    622287.15347                  23164973.1314
        45.7504         31.0004
 04  6 29 15 27 10.0000000  0  8G 6G15G16G18G21G22G26G29
  21137307.6054     895361.46949    688123.79748                  21137305.5314
        49.5004         43.5004
  22990109.2114    -425086.03549   -325338.89847                  22990106.9704
        45.5004         32.0004
  23767801.0614     309125.37549    236046.46347                  23767797.3124
        40.5004         27.0004
  20640328.4824      59038.02749     45578.37748                  20640324.7974
        47.5004         45.7504
  20771697.2664      77364.70749     59467.60048                  20771692.8924
        48.5004         43.2504
  22232751.7834    -411698.46149   -316272.44647                  22232747.2744
        50.7504         37.7504
  21939400.6254     630865.52349    485087.58147                  21939398.7324
        45.2504         37.7504
  23170672.1714     842867.66449    645617.72447                  23170670.2084
        45.2504         30.2504
 04  6 29 15 27 20.0000000  0  8G 6G15G16G18G21G22G26G29
  21143355.3784     927143.43849    712888.96248                  21143353.3644
        51.5004         43.0004
  22987475.2664    -438930.57849   -336126.83047                  22987472.6174
        45.5004         31.5004
  23770093.5834     321175.05149    245435.85847                  23770090.1154
        40.0004         26.7504
  20640947.7014      62292.29749     48114.18348                  20640943.8234
        50.2504         45.5004
  20772362.8914      80861.62549     62192.47348                  20772358.9644
        50.0004         43.0004
  22230292.9104    -424620.18449   -326341.31147                  22230288.2864
        50.2504         38.2504
  21943799.1954     653980.97749    503099.63747                  21943797.2044
        44.2504         38.0004
  23176383.9924     872885.00049    669007.85247                  23176382.2124
        45.0004         31.0004
 04  6 29 15 27 30.0000000  0  8G 6G15G16G18G21G22G26G29
  21149417.4174     959000.70749    737712.78148                  21149415.9674
        50.5004         43.0004
  22984845.4834    -452744.01249   -346890.53947                  22984844.4464
        45.5004         31.5004
  23772402.3564     333306.67249    254889.04247                  23772399.1854
        41.0004         27.5004
  20641580.6644      65618.59449     50706.08448                  20641576.7444
        51.5004         45.5004
  20773037.4594      84406.13349     64954.41048                  20773032.6704
        50.7504         43.0004
  22227846.2184    -437478.66849   -336360.91447                  22227841.0764
        50.7504         38.5004
  21948216.8344     677194.13749    521187.79447                  21948214.2994
        46.0004         38.0004
  23182111.3324     902980.32849    692458.74847                  23182108.9894
        45.0004         30.7504
 04  6 29 15 27 40.0000000  0  8G 6G15G16G18G21G22G26G29
  21155493.7004     990931.16449    762593.65048                  21155491.7444
        51.2504         42.7504
  22982222.9344    -466528.42649   -357631.63947                  22982221.0844
        45.7504         31.2504
  23774726.1744     345518.02749    264404.35247                  23774722.5334
        42.0004         26.5004
  20642226.6574      69014.74249     53352.44048                  20642222.7324
        50.7504         45.7504
  20773720.3994      87996.04749     67751.73848                  20773716.6134
        49.2504         43.0004
  22225410.7114    -450275.98449   -346332.83047                  22225405.9774
        50.7504         38.7504
  21952652.5724     700502.81349    539350.38547                  21952650.1454
        44.7504         38.2504
  23187852.4214     933151.35549    715968.61447                  23187850.6974
        45.0004         30.7504
 04  6 29 15 27 50.0000000  0  8G 6G15G16G18G21G22G26G29
  21161583.2174    1022930.98849    787528.56648                  21161581.1014
        51.5004         42.5004
  22979604.3244    -480287.52049   -368353.01247                  22979603.0394
        44.0004         32.2504
  23777063.6974     357805.35549    273978.87847                  23777061.2004
        40.7504         27.7504
  20642885.5344      72477.01249     56050.30548                  20642881.6564
        49.0004         45.7504
  20774411.6414      91627.60549     70581.52448                  20774407.2474
        48.0004         43.0004
  22222986.1984    -463015.85549   -356260.01047                  22222981.3804
        50.7504         38.2504
  21957104.8304     723903.25849    557584.49547                  21957102.6234
        44.7504         38.5004
  23193607.8274     963394.36749    739534.60547                  23193605.6714
        46.0004         30.5004
 04  6 29 15 28  0.0000000  0  8G 6G15G16G18G21G22G26G29
  21167686.1794    1055002.93049    812519.67348                  21167684.3764
        51.2504         42.2504
  22976991.6934    -494018.54349   -379052.50547                  22976990.1764
        45.2504         31.5004
  23779417.9444     370171.39149    283614.74547                  23779414.2564
        39.7504         27.0004
  20643557.5884      76008.02049     58801.73448                  20643553.7504
        47.7504         46.0004
  20775111.2654      95303.73449     73446.04248                  20775106.9694
        48.0004         43.5004
  22220573.5724    -475695.42649   -366140.18147                  22220568.4804
        50.5004         39.0004
  21961575.9904     747398.09449    575892.14747                  21961573.7384
        46.2504         38.2504
  23199376.6464     993711.91049    763158.64947                  23199375.1224
        45.0004         30.0004
 04  6 29 15 28 10.0000000  0  8G 6G15G16G18G21G22G26G29
  21173802.8244    1087144.91449    837565.36848                  21173800.3584
        51.0004         43.0004
  22974383.9744    -507723.48449   -389731.67647                  22974381.5534
        46.2504         31.5004
  23781784.7954     382614.06349    293310.32947                  23781782.5774
        40.0004         27.5004
  20644242.1434      79605.83649     61605.23248                  20644239.0054
        48.0004         45.5004
  20775818.7774      99022.25449     76343.58548                  20775814.1874
        48.5004         43.7504
  22218171.8044    -488316.78149   -375974.99347                  22218167.1684
        50.7504         38.0004
  21966064.5814     770985.28149    594271.78147                  21966062.0874
        47.2504         38.5004
  23205159.9764    1024101.97749    786839.22647                  23205158.6414
        44.5004         28.7504
 04  6 29 15 28 20.0000000  0  8G 6G15G16G18G21G22G26G29
  21179932.7994    1119359.14849    862667.36348                  21179930.7914
        51.5004         42.7504
  22971781.4564    -521400.09449   -400388.76447                  22971779.5954
        45.5004         32.0004
  23784167.5574     395135.61349    303067.39947                  23784165.3334
        41.0004         26.5004
  20644939.7734      83272.73449     64462.55148                  20644935.8094
        48.7504         45.7504
  20776534.9714     102785.51649     79275.99248                  20776530.6044
        49.0004         43.2504
  22215781.4184    -500877.62949   -385762.67147                  22215776.7834
        50.5004         38.2504
  21970571.0234     794667.06649    612725.11447                  21970568.7134
        47.5004         38.2504
  23210956.3544    1054566.73849    810577.96147                  23210955.3414
        44.5004         29.0004
 04  6 29 15 28 30.0000000  0  8G 6G15G16G18G21G22G26G29
  21186075.8514    1151641.14849    887822.15348                  21186073.9904
        51.0004         42.5004
  22969183.5484    -535052.67249   -411027.13047                  22969181.4594
        44.7504         32.5004
  23786565.0024     407731.71149    312882.50747                  23786562.1294
        39.7504         27.2504
  20645650.1654      87004.30149     67370.26748                  20645645.6504
        49.2504         45.2504
  20777258.5654     106589.24249     82239.94248                  20777254.8384
        49.0004         43.2504
  22213401.6824    -513382.18749   -395506.47347                  22213397.1034
        50.0004         38.7504
  21975094.3914     818439.09449    631248.76347                  21975092.2224
        46.5004         38.2504
  23216767.8624    1085101.84849    834371.57847                  23216765.8604
        45.0004         29.5004
 04  6 29 15 28 40.0000000  0  8G 6G15G16G18G21G22G26G29
  21192231.5014    1183987.34049    913026.95448                  21192229.2414
        50.5004         42.7504
  22966589.8444    -548684.88349   -421649.63347                  22966586.9444
        46.0004         32.0004
  23788975.0344     420398.57849    322752.76447                  23788972.8634
        37.7504         26.5004
  20646371.7784      90796.90649     70325.54248                  20646368.3554
        51.2504         45.5004
  20777989.4604     110429.80949     85232.57648                  20777985.1464
        50.7504         43.5004
  22211032.4794    -525834.16849   -405209.29847                  22211028.0044
        50.2504         39.0004
  21979634.4844     842297.60249    649839.79047                  21979632.5354
        47.2504         38.0004
  23222591.0344    1115703.56649    858217.04147                  23222589.4144
        45.0004         30.0004
 04  6 29 15 28 50.0000000  0  8G 6G15G16G18G21G22G26G29
  21198399.1124    1216399.71549    938283.34648                  21198396.6074
        51.2504         42.7504
  22963999.5184    -562294.54749   -432254.56747                  22963996.9874
        46.0004         32.2504
  23791399.0414     433138.31349    332679.83647                  23791396.9034
        40.2504         27.0004
  20647106.0494      94652.57849     73329.96048                  20647101.9194
        51.5004         45.5004
  20778727.1654     114309.39149     88255.62548                  20778722.7164
        52.5004         43.5004
  22208673.3524    -538231.43049   -414869.50247                  22208668.8764
        50.5004         39.0004
  21984191.6824     866244.60249    668499.78547                  21984189.3444
        46.7504         38.0004
  23228427.4894    1146373.91849    882116.02247                  23228425.5594
        45.7504         29.2504
 04  6 29 15 29  0.0000000  0  8G 6G15G16G18G21G22G26G29
  21204579.4184    1248877.21149    963590.46748                  21204577.0534
        50.7504         43.0004
  22961414.1734    -575882.71549   -442842.75547                  22961411.3094
        46.0004         32.0004
  23793837.3294     445949.84049    342662.83547                  23793835.4904
        40.0004         26.0004
  20647850.2514      98570.24249     76382.67948                  20647846.8994
        51.5004         46.0004
  20779474.0374     118226.96149     91308.28048                  20779469.5554
        51.5004         43.5004
  22206324.2984    -550574.98449   -424487.85947                  22206319.7514
        50.2504         38.7504
  21988764.8934     890279.12949    687227.98247                  21988763.1684
        46.5004         37.5004
  23234276.7634    1177111.78149    906067.58847                  23234274.9764
        44.7504         29.2504
 04  6 29 15 29 10.0000000  0  8G 6G15G16G18G21G22G26G29
  21210771.7684    1281420.67649    988949.01148                  21210769.8524
        50.7504         42.5004
  22958832.5984    -589448.48049   -453413.46947                  22958829.7314
        46.0004         32.0004
  23796288.5144     458833.97749    352702.42246                  23796286.8124
        38.2504         25.2504
  20648608.1944     102550.75049     79484.38148                  20648604.4574
        51.0004         45.5004
  20780226.5844     122183.41049     94391.21148                  20780221.9034
        51.2504         44.2504
  22203985.4024    -562863.89849   -434063.63047                  22203981.2484
        49.7504         39.0004
  21993355.4554     914401.88349    706024.92547                  21993353.6054
        47.2504         38.2504
  23240138.9814    1207917.93449    930072.37547                  23240137.0264
        43.5004         30.5004
 04  6 29 15 29 20.0000000  0  8G 6G15G16G18G21G22G26G29
  21216978.1394    1314034.37149   1014362.27748                  21216975.5814
        50.7504         42.5004
  22956256.2434    -602987.49649   -463963.35447                  22956252.9774
        45.0004         31.0004
  23798755.3364     471795.04349    362801.95946                  23798753.5224
        39.5004         24.7504
  20649378.6884     106598.47749     82638.45248                  20649375.4124
        50.2504         45.5004
  20780987.4734     126183.11349     97507.85648                  20780982.4084
        50.2504         44.0004
  22201658.3344    -575093.82849   -443593.43447                  22201653.7694
        50.5004         39.2504
  21997963.4474     938617.19549    724893.98747                  21997961.6664
        45.2504         38.2504
  23246015.1534    1238796.68849    954133.73647                  23246013.2724
        44.7504         30.5004
 04  6 29 15 29 30.0000000  0  8G 6G15G16G18G21G22G26G29
  21223197.0754    1346713.36349   1039826.42348                  21223194.2294
        51.7504         42.0004
  22953683.2094    -616504.73049   -474496.26147                  22953680.7914
        46.5004         31.7504
  23801235.5814     484828.01249    372957.45947                  23801233.0094
        41.0004         26.0004
  20650160.8184     110708.46149     85841.03748                  20650156.8614
        48.7504         45.5004
  20781755.2914     130221.16849    100654.39148                  20781751.0284
        49.2504         43.7504
  22199341.5894    -587269.69149   -453081.12247                  22199336.7844
        51.0004         39.2504
  22002588.3104     962920.16049    743831.35547                  22002586.5854
        46.0004         37.7504
  23251904.5064    1269742.98449    978247.72447                  23251902.3524
        46.0004         31.0004
 04  6 29 15 29 40.0000000  0  8G 6G15G16G18G21G22G26G29
  21229427.7824    1379457.63749   1065341.43248                  21229425.5084
        51.5004         42.2504
  22951115.4404    -629999.94949   -485012.00447                  22951112.6794
        46.2504         31.5004
  23803729.2994     497933.13749    383169.25547                  23803727.1134
        41.5004         26.0004
  20650954.9464     114880.91049     89092.28248                  20650950.6094
        47.5004         45.2504
  20782531.1194     134297.76649    103830.95248                  20782527.4754
        47.5004         43.7504
  22197034.7404    -599391.26649   -462526.49747                  22197029.8934
        50.7504         38.5004
  22007229.6444     987310.85249    762837.08647                  22007227.4864
        44.5004         38.0004
  23257805.9084    1300756.99649   1002414.47847                  23257803.6774
        45.7504         30.5004
 04  6 29 15 29 50.0000000  0  8G 6G15G16G18G21G22G26G29
  21235671.0334    1412265.64549   1090906.11748                  21235668.8634
        51.5004         42.0004
  22948551.8924    -643474.74649   -495511.84547                  22948548.4714
        47.0004         31.5004
  23806236.2374     511108.68049    393435.91247                  23806234.1904
        38.2504         26.0004
  20651760.5414     119114.11749     92390.88848                  20651756.4834
        48.0004         45.5004
  20783314.2254     138411.35949    107036.34548                  20783309.9354
        47.7504         43.5004
  22194738.3624    -611460.21149   -471930.86347                  22194733.7384
        50.5004         38.0004
  22011887.1244    1011787.50849    781909.80647                  22011885.4434
        45.0004         37.7504
  23263720.4154    1331837.03949   1026632.69547                  23263718.0544
        46.0004         30.2504
 04  6 29 15 30  0.0000000  0  8G 6G15G16G18G21G22G26G29
  21241925.6674    1445133.27049   1116517.24448                  21241923.5474
        51.2504         42.5004
  22945990.9704    -656933.14849   -505998.89747                  22945987.2424
        46.5004         31.5004
  23808755.9484     524350.55549    403754.26646                  23808753.8594
        40.0004         25.2504
  20652576.6994     123404.04349     95733.69048                  20652572.9074
        48.2504         45.5004
  20784103.2134     142557.87149    110267.39848                  20784098.9064
        48.0004         43.7504
  22192450.8884    -623480.49649   -481297.31947                  22192446.0474
        50.2504         38.7504
  22016560.9294    1036346.15249    801046.39147                  22016558.5184
        45.0004         37.2504
  23269646.4994    1362978.94549   1050899.10347                  23269644.0784
        45.7504         30.7504
 04  6 29 15 30 10.0000000  0  8G 6G15G16G18G21G22G26G29
  21248191.8084    1478061.69949   1142175.75648                  21248189.3894
        51.2504         42.7504
  22943432.3614    -670373.83649   -516472.17547                  22943429.5344
        46.0004         31.2504
  23811288.9114     537660.08649    414125.27947                  23811286.7634
        40.5004         26.2504
  20653404.4674     127751.95349     99121.66348                  20653400.3964
        50.0004         45.5004
  20784898.7654     146738.74649    113525.21848                  20784894.8934
        49.5004         43.5004
  22190172.8014    -635450.76249   -490624.79247                  22190168.1124
        50.7504         38.5004
  22021250.1364    1060987.99649    820247.82347                  22021247.7944
        45.7504         37.5004
  23275584.0974    1394184.01649   1075214.72347                  23275582.8324
        45.7504         31.7504
 04  6 29 15 30 20.0000000  0  8G 6G15G16G18G21G22G26G29
  21254469.6524    1511053.57049   1167883.69348                  21254467.6834
        51.2504         41.7504
  22940879.1784    -683794.14549   -526929.54347                  22940876.0164
        46.7504         30.5004
  23813835.3334     551039.85549    424551.06647                  23813832.3824
        41.2504         26.0004
  20654243.0984     132160.38349    102556.80048                  20654239.1114
        51.0004         45.2504
  20785701.5484     150956.71149    116811.93548                  20785697.6464
        50.5004         43.2504
  22187905.1684    -647368.35549   -499911.22947                  22187900.7364
        50.7504         38.5004
  22025955.2144    1085715.62949    839516.10047                  22025953.5364
        45.0004         37.0004
  23281534.8434    1425454.70349   1099581.49247                  23281533.1804
        45.7504         31.5004
 04  6 29 15 30 30.0000000  0  8G 6G15G16G18G21G22G26G29
  21260759.8394    1544108.03149   1193640.39748                  21260758.0144
        51.2504         42.0004
  22938328.6214    -697194.86749   -537371.66247                  22938326.1174
        46.0004         31.0004
  23816394.3154     564488.98849    435030.90847                  23816391.4454
        39.0004         25.7504
  20655093.0794     136628.59849    106038.52248                  20655089.4234
        50.7504         45.5004
  20786511.0704     155210.85249    120126.84248                  20786507.0044
        51.2504         43.5004
  22185646.9134    -659234.18449   -509157.31247                  22185642.5124
        50.0004         39.0004
  22030677.5124    1110528.25849    858850.59547                  22030675.2224
        44.7504         37.0004
  23287497.8804    1456790.23449   1123998.77747                  23287495.7424
        46.0004         31.0004
 04  6 29 15 30 40.0000000  0  8G 6G15G16G18G21G22G26G29
  21267061.2464    1577222.58649   1219443.94448                  21267059.2694
        51.7504         41.7504
  22935781.5954    -710578.35549   -547800.31347                  22935779.2774
        46.5004         30.7504
  23818966.1384     578005.03549    445562.89946                  23818963.9454
        40.5004         25.0004
  20655954.5574     141154.24249    109565.00348                  20655950.8024
        49.0004         45.2504
  20787326.8584     159498.78549    123468.09248                  20787322.5564
        50.7504         43.5004
  22183398.1084    -671050.50849   -518364.82447                  22183393.8814
        50.2504         38.2504
  22035414.5574    1135423.32849    878249.35747                  22035412.3014
        44.7504         37.5004
  23293472.9594    1488188.07449   1148464.61547                  23293470.9974
        45.5004         31.0004
 04  6 29 15 30 50.0000000  0  8G 6G15G16G18G21G22G26G29
  21273374.9674    1610400.50049   1245296.84048                  21273372.4244
        51.7504         42.0004
  22933239.0484    -723941.34449   -558213.05147                  22933236.1504
        46.5004         31.7504
  23821551.6964     591591.32849    456149.58947                  23821549.3444
        39.5004         26.0004
  20656827.4514     145740.54349    113138.74148                  20656823.5904
        47.5004         45.2504
  20788149.9034     163823.84449    126838.25948                  20788145.4454
        47.7504         43.5004
  22181159.9094    -682814.04749   -527531.22147                  22181155.8444
        50.0004         38.2504
  22040168.3494    1160404.12149    897714.89547                  22040165.5684
        45.2504         37.2504
  23299460.1014    1519651.66049   1172981.67647                  23299458.4224
        45.5004         30.0004
 04  6 29 15 31  0.0000000  0  8G 6G15G16G18G21G22G26G29
  21279700.1904    1643639.52049   1271197.35648                  21279697.7494
        51.5004         42.0004
  22930699.5774    -737286.03949   -568611.50747                  22930696.8894
        46.0004         31.5004
  23824150.2574     605245.48849    466789.17347                  23824148.3544
        40.5004         27.0004
  20657710.9104     150385.13749    116757.89148                  20657707.2294
        47.5004         45.2504
  20788979.6904     168183.83649    130235.66048                  20788975.4444
        47.7504         43.5004
  22178931.0344    -694526.99649   -536658.19447                  22178927.0394
        50.0004         38.5004
  22044937.9404    1185468.38349    917245.48247                  22044935.4554
        45.0004         37.5004
  23305459.2334    1551178.45349   1197548.00347                  23305457.6204
        45.0004         30.2504
 04  6 29 15 31 10.0000000  0  8G 6G15G16G18G21G22G26G29
  21286036.7184    1676938.68449   1297144.76148                  21286034.5044
        51.0004         42.2504
  22928163.4064    -750613.38349   -578996.43047                  22928160.7164
        46.0004         31.2504
  23826761.8604     618966.61749    477480.96547                  23826758.7954
        40.5004         26.0004
  20658605.7094     155087.13349    120421.78848                  20658602.0274
        47.5004         45.2504
  20789815.9694     172577.87949    133659.57548                  20789811.9194
        47.7504         43.5004
  22176711.4854    -706190.28549   -545746.46847                  22176707.6044
        50.0004         39.0004
  22049723.4094    1210615.03949    936840.28747                  22049720.8384
        44.5004         37.7504
  23311470.4184    1582767.47349   1222162.81147                  23311469.0144
        43.7504         30.2504
 04  6 29 15 31 20.0000000  0  8G 6G15G16G18G21G22G26G29
  21292384.8394    1710298.50849   1323139.41548                  21292382.5384
        51.0004         41.7504
  22925631.0174    -763922.61349   -589367.26447                  22925628.1594
        45.7504         31.2504
  23829385.2464     632755.29749    488225.38747                  23829382.5984
        41.0004         27.2504
  20659511.7554     159847.22749    124130.95648                  20659507.6804
        47.7504         45.5004
  20790658.6384     177006.67249    137110.58348                  20790654.8304
        47.7504         43.5004
  22174501.7734    -717803.24649   -554795.51047                  22174497.6314
        50.0004         39.0004
  22054524.3394    1235844.74649    956499.78947                  22054521.8494
        46.0004         37.7504
  23317493.6844    1614419.37949   1246826.63347                  23317491.5104
        44.5004         29.5004
 04  6 29 15 31 30.0000000  0  8G 6G15G16G18G21G22G26G29
  21298743.7864    1743716.63749   1349179.50548                  21298741.4984
        51.5004         42.0004
  22923101.3944    -777216.10949   -599725.82747                  22923099.2194
        45.7504         31.0004
  23832021.1944     646609.19949    499020.59347                  23832018.9614
        40.5004         27.0004
  20660428.0934     164663.00449    127883.51248                  20660424.0994
        49.0004         45.5004
  20791507.5654     181467.94949    140586.89948                  20791503.2384
        49.0004         43.5004
  22172300.7914    -729368.14549   -563807.12047                  22172296.6874
        50.2504         39.0004
  22059340.6274    1261155.16049    976222.18047                  22059338.1794
        46.0004         37.5004
  23323528.5224    1646131.70749   1271537.53647                  23323526.4784
        44.7504         29.7504
 04  6 29 15 31 40.0000000  0  8G 6G15G16G18G21G22G26G29
  21305113.9704    1777191.71549   1375263.97748                  21305111.8654
        50.5004         42.0004
  22920574.2514    -790495.21149   -610073.17847                  22920572.6324
        47.0004         32.5004
  23834669.9624     660526.87949    509865.52146                  23834667.6414
        39.2504         25.5004
  20661354.7394     169533.06649    131678.35748                  20661351.0704
        51.7504         46.0004
  20792362.6724     185960.35249    144087.47348                  20792358.7584
        51.5004         44.0004
  22170108.7674    -740886.33649   -572782.32147                  22170104.6094
        49.5004         39.0004
  22064172.6784    1286544.75049    996006.27147                  22064170.0064
        46.7504         37.7504
  23329574.5494    1677903.07049   1296294.44147                  23329572.1404
        43.7504         29.5004
 04  6 29 15 31 50.0000000  0  8G 6G15G16G18G21G22G26G29
  21311495.7774    1810727.43849   1401395.69348                  21311493.1524
        50.7504         41.5004
  22918051.4744    -803756.09049   -620406.33847                  22918049.0314
        45.5004         32.5004
  23837330.8004     674512.07449    520763.07346                  23837328.4804
        39.5004         25.5004
  20662292.7294     174461.32449    135518.57048                  20662288.4614
        50.2504         45.5004
  20793224.0214     190487.75449    147615.32448                  20793219.6754
        52.0004         43.5004
  22167926.5484    -752353.98049   -581718.15047                  22167921.9074
        49.5004         38.5004
  22069019.2144    1312017.30149   1015855.00647                  22069017.1844
        46.5004         37.7504
  23335632.2944    1709737.15649   1321100.21647                  23335630.1794
        45.0004         30.0004
 04  6 29 15 32  0.0000000  0  8G 6G15G16G18G21G22G26G29
  21317888.8324    1844321.36749   1427572.76848                  21317886.1044
        51.2504         41.5004
  22915530.5624    -817001.06249   -630727.07447                  22915528.4924
        46.0004         32.2504
  23840004.6924     688562.47749    531711.41147                  23840002.8884
        39.2504         25.7504
  20663241.0794     179445.28149    139402.16548                  20663237.0794
        49.0004         45.5004
  20794092.0004     195047.80549    151168.60548                  20794087.5534
        49.7504         43.7504
  22165753.2494    -763773.41449   -590616.39847                  22165749.2094
        50.2504         38.7504
  22073881.8174    1337570.49649   1035766.58247                  22073880.1224
        46.0004         37.5004
  23341701.8944    1741631.53949   1345952.97047                  23341699.6884
        44.7504         30.2504
 04  6 29 15 32 10.0000000  0  8G 6G15G16G18G21G22G26G29
  21324293.0144    1877976.62549   1453797.62448                  21324290.8294
        51.0004         41.5004
  22913013.9974    -830227.03149   -641033.05147                  22913011.3974
        46.2504         32.7504
  23842691.5534     702680.96949    542712.80147                  23842689.1564
        41.0004         26.7504
  20664200.9024     184488.02749    143331.57748                  20664197.1164
        47.5004         45.5004
  20794966.6354     199643.69949    154749.81848                  20794962.2394
        47.7504         43.5004
  22163590.3714    -775141.55149   -599474.68347                  22163586.6064
        50.2504         39.0004
  22078760.7434    1363207.36349   1055743.35947                  22078758.4674
        45.2504         38.0004
  23347782.9284    1773589.24249   1370855.05547                  23347780.9294
        45.5004         30.5004
 04  6 29 15 32 20.0000000  0  8G 6G15G16G18G21G22G26G29
  21330708.4334    1911690.20349   1480067.94748                  21330706.2184
        50.7504         41.7504
  22910500.1134    -843436.92249   -651326.45547                  22910498.2514
        46.5004         32.5004
  23845390.3374     716864.78149    553765.10747                  23845388.2394
        39.0004         27.0004
  20665171.1544     189586.71949    147304.58448                  20665166.7074
        47.7504         45.7504
  20795847.0484     204272.49249    158356.67248                  20795843.3854
        47.7504         43.2504
  22161436.9034    -786461.28149   -608295.23947                  22161432.7724
        50.2504         38.7504
  22083654.4934    1388924.77749   1075782.90247                  22083652.1304
        46.2504         37.7504
  23353876.0074    1805607.37149   1395804.25047                  23353874.1284
        45.5004         31.0004
 04  6 29 15 32 30.0000000  0  8G 6G15G16G18G21G22G26G29
  21337134.2614    1945458.54749   1506380.92948                  21337131.9104
        50.7504         42.0004
  22907988.8134    -856634.16049   -661610.02647                  22907986.7534
        47.2504         32.0004
  23848101.3634     731110.29349    564865.48646                  23848098.7994
        38.7504         24.7504
  20666151.1044     194737.71149    151318.34148                  20666147.0524
        47.5004         45.7504
  20796733.6184     208930.72749    161986.45448                  20796729.6094
        47.7504         43.5004
  22159290.5904    -797736.09849   -617080.82247                  22159286.2784
        51.0004         38.5004
  22088563.1614    1414719.32049   1095882.53047                  22088561.0024
        47.0004         37.5004
  23359979.9284    1837682.28149   1420797.67947                  23359977.7724
        46.0004         31.0004
 04  6 29 15 32 40.0000000  0  8G 6G15G16G18G21G22G26G29
  21343571.0894    1979284.23449   1532738.60048                  21343568.7244
        51.0004         41.7504
  22905480.5824    -869816.13749   -671881.68447                  22905478.7384
        46.7504         33.0004
  23850824.8994     745420.10949    576015.99146                  23850821.7814
        39.0004         24.2504
  20667141.6884     199943.59449    155374.87448                  20667138.0284
        49.7504         45.5004
  20797626.1284     213621.18449    165641.35648                  20797622.0164
        49.7504         43.5004
  22157154.1504    -808963.32049   -625829.30347                  22157149.6794
        50.0004         38.7504
  22093486.5554    1440593.58649   1116044.29747                  22093484.8884
        47.0004         37.0004
  23366094.3894    1869816.53549   1445837.36047                  23366092.7294
        44.7504         31.7504
 04  6 29 15 32 50.0000000  0  8G 6G15G16G18G21G22G26G29
  21350018.7744    2013166.09049   1559140.03348                  21350016.6294
        50.2504         41.5004
  22902974.4954    -882983.94949   -682142.31747                  22902972.7554
        45.5004         32.5004
  23853559.2314     759793.00449    587215.64447                  23853557.0714
        38.0004         25.7504
  20668142.5644     205203.27349    159473.32348                  20668138.5124
        51.7504         46.0004
  20798524.4194     218342.67249    169320.43748                  20798520.5094
        51.2504         43.5004
  22155026.6014    -820144.04349   -634541.55647                  22155022.8264
        50.2504         39.0004
  22098425.2474    1466546.34049   1136267.20247                  22098422.8624
        46.5004         37.0004
  23372220.1924    1902008.91049   1470922.32547                  23372218.6184
        45.5004         30.5004
 04  6 29 15 33  0.0000000  0  8G 6G15G16G18G21G22G26G29
  21356477.1044    2047103.56649   1585584.80248                  21356474.9764
        50.7504         41.2504
  22900471.1104    -896138.07449   -692392.29047                  22900469.3884
        45.0004         32.0004
  23856307.2714     774228.52049    598464.05846                  23856304.0044
        38.0004         24.7504
  20669153.9324     210516.13349    163613.20748                  20669149.6124
        52.0004         46.2504
  20799428.9264     223094.69149    173023.30848                  20799425.0144
        52.0004         43.5004
  22152907.9784    -831278.70749   -643217.90947                  22152904.0504
        50.5004         39.0004
  22103378.6184    1492576.97749   1156550.81147                  22103376.7964
        46.2504         37.0004
  23378357.7874    1934258.87549   1496052.16047                  23378355.4814
        45.2504         31.5004
 04  6 29 15 33 10.0000000  0  8G 6G15G16G18G21G22G26G29
  21362945.3634    2081096.84849   1612073.06848                  21362943.3084
        51.0004         42.0004
  22897970.6774    -909278.26249   -702631.37547                  22897969.1074
        45.5004         32.0004
  23859065.6354     788726.76249    609761.39146                  23859062.9054
        37.7504         25.0004
  20670174.9314     215882.37949    167794.70548                  20670170.6674
        51.7504         45.5004
  20800338.9744     227877.60249    176750.25348                  20800334.9594
        51.5004         43.5004
  22150797.8394    -842367.13349   -651858.22648                  22150793.5724
        50.5004         39.5004
  22108346.9194    1518685.72749   1176895.28247                  22108344.8774
        47.0004         37.2504
  23384505.0424    1966566.65649   1521227.04547                  23384503.6054
        44.5004         30.5004
 04  6 29 15 33 20.0000000  0  8G 6G15G16G18G21G22G26G29
  21369424.6274    2115144.79349   1638603.92148                  21369422.4904
        50.2504         41.5004
  22895472.1314    -922405.45349   -712860.36347                  22895471.0104
        45.0004         31.5004
  23861836.6244     803286.64149    621106.76146                  23861832.6954
        39.7504         24.2504
  20671205.7044     221301.10249    172017.07848                  20671202.3284
        52.0004         45.5004
  20801255.1284     232690.25849    180500.37148                  20801250.8064
        51.5004         43.2504
  22148696.2034    -853410.34449   -660463.33147                  22148691.4494
        50.0004         38.2504
  22113330.1334    1544871.55949   1197299.81747                  22113327.9824
        47.7504         36.5004
  23390663.8884    1998931.05549   1546446.04547                  23390662.2164
        45.2504         31.7504
 04  6 29 15 33 30.0000000  0  8G 6G15G16G18G21G22G26G29
  21375913.7624    2149245.80949   1665176.13448                  21375911.3664
        50.5004         41.5004
  22892975.5704    -935521.18049   -723080.39547                  22892974.8184
        43.0004         31.5004
  23864618.0164     817906.71549    632498.96546                  23864615.5964
        37.0004         25.2504
  20672246.8184     226770.65249    176279.07248                  20672242.5804
        51.5004         45.5004
  20802175.5864     237531.20749    184272.53648                  20802171.9244
        51.0004         43.2504
  22146603.1474    -864409.75049   -669034.29047                  22146598.2924
        50.5004         38.2504
  22118327.5704    1571132.78949   1217763.10547                  22118325.4294
        45.7504         37.0004
  23396832.9264    2031350.43449   1571707.88247                  23396831.3654
        45.2504         30.2504
 04  6 29 15 33 40.0000000  0  8G 6G15G16G18G21G22G26G29
  21382414.2754    2183406.29349   1691794.67948                  21382411.6664
        49.7504         41.5004
  22890484.1614    -948619.00049   -733286.49747                  22890482.5764
        44.2504         31.5004
  23867412.5984     832593.31649    643943.08846                  23867410.4964
        37.7504         24.2504
  20673298.4454     232297.52749    180585.72548                  20673294.7544
        52.0004         45.5004
  20803103.7254     242406.97349    188071.82648                  20803099.5234
        51.5004         43.0004
  22144519.4204    -875358.99649   -677566.17947                  22144515.1434
        50.2504         38.5004
  22123340.4434    1597475.81349   1238290.13147                  22123338.2624
        47.2504         36.5004
  23403014.2964    2063831.30149   1597017.63147                  23403012.5574
        44.2504         30.5004
 04  6 29 15 33 50.0000000  0  8G 6G15G16G18G21G22G26G29
  21388925.4384    2217620.52349   1718455.10548                  21388922.8794
        49.5004         41.7504
  22887993.9624    -961704.71549   -743483.15647                  22887992.4434
        43.2504         31.5004
  23870219.6024     847340.48849    655434.35846                  23870216.2344
        36.5004         24.5004
  20674360.1924     237875.90249    184932.50748                  20674356.2934
        50.5004         46.0004
  20804037.3134     247311.79349    191893.77148                  20804032.7254
        50.0004         43.0004
  22142444.1264    -886263.78149   -686063.40047                  22142440.0034
        50.0004         39.0004
  22128367.5684    1623894.81349   1258876.36347                  22128365.3934
        46.7504         36.2504
  23409205.4504    2096367.63349   1622370.62647                  23409204.1194
        45.0004         30.7504
 04  6 29 15 34  0.0000000  0  8G 6G15G16G18G21G22G26G29
  21395446.1844    2251888.96549   1745157.76948                  21395443.6334
        48.0004         42.0004
  22885506.0624    -974777.61749   -753669.81647                  22885504.7694
        44.0004         31.5004
  23873036.9274     862149.03949    666973.49146                  23873034.3784
        38.7504         24.7504
  20675431.3814     243506.41449    189319.91448                  20675427.0824
        49.5004         46.2504
  20804976.1564     252246.31649    195738.84048                  20804971.9184
        48.0004         43.2504
  22140377.8104    -897123.48049   -694525.50047                  22140373.6784
        49.7504         38.0004
  22133409.5554    1650390.34849   1279522.22647                  22133407.4294
        47.5004         36.5004
  23415407.6054    2128960.04349   1647767.28447                  23415406.3504
        43.7504         30.2504
 04  6 29 15 34 10.0000000  0  8G 6G15G16G18G21G22G26G29
  21401977.0864    2286208.79349   1771900.48848                  21401975.1354
        50.7504         42.2504
  22883020.8574    -987840.44549   -763848.64447                  22883018.9594
        44.2504         31.0004
  23875865.6704     877016.10249    678558.18846                  23875863.7704
        38.0004         24.5004
  20676512.3454     249186.24249    193745.75448                  20676508.1914
        50.2504         45.7504
  20805920.5824     257207.85549    199604.96948                  20805916.1524
        49.0004         43.2504
  22138319.5874    -907940.78949   -702954.55547                  22138315.1904
        50.0004         38.2504
  22138465.7704    1676959.66849   1300225.59147                  22138463.7324
        48.0004         37.0004
  23421619.3834    2161605.76249   1673205.50547                  23421618.4384
        43.7504         30.2504
 04  6 29 15 34 20.0000000  0  8G 6G15G16G18G21G22G26G29
  21408517.8034    2320580.30549   1798683.47048                  21408515.7184
        49.0004         42.0004
  22880536.5664   -1000893.02049   -774019.46047                  22880534.9254
        44.0004         31.7504
  23878707.0704     891941.80549    690188.60246                  23878703.7324
        37.0004         23.5004
  20677602.8094     254915.63349    198210.20648                  20677598.7714
        51.7504         45.7504
  20806869.6764     262196.70749    203492.38948                  20806865.6584
        50.2504         43.0004
  22136269.0624    -918715.48449   -711350.43547                  22136264.4404
        49.7504         38.2504
  22143536.2834    1703602.83249   1320986.48047                  22143533.6864
        48.2504         37.5004
  23427842.2924    2194304.93849   1698685.35147                  23427840.8104
        44.5004         29.5004
 04  6 29 15 34 30.0000000  0  8G 6G15G16G18G21G22G26G29
  21415068.7954    2355004.27349   1825507.33148                  21415066.4124
        48.2504         42.0004
  22878055.1094   -1013934.31249   -784181.51047                  22878053.0184
        44.2504         31.7504
  23881558.3714     906927.06349    701865.44746                  23881555.0924
        38.2504         24.2504
  20678702.6524     260695.46949    202713.98248                  20678698.9724
        51.5004         45.7504
  20807824.6564     267213.78149    207401.79248                  20807820.1794
        49.7504         43.0004
  22134227.0244    -929446.66449   -719712.37147                  22134223.0394
        49.5004         38.5004
  22148620.2134    1730320.73849   1341805.62247                  22148617.6084
        47.5004         37.2504
  23434074.8714    2227058.42249   1724207.55947                  23434073.5464
        44.5004         28.7504
 04  6 29 15 34 40.0000000  0  8G 6G15G16G18G21G22G26G29
  21421629.6934    2389483.00049   1852373.86648                  21421627.2534
        49.0004         41.7504
  22875575.8664   -1026961.96549   -794332.91047                  22875574.6194
        45.0004         32.0004
  23884421.7444     921974.20349    713590.47346                  23884418.8814
        37.5004         23.7504
  20679812.1944     266528.07049    207258.86048                  20679808.6364
        52.0004         45.7504
  20808784.9294     272261.46549    211335.05648                  20808781.1524
        49.5004         43.0004
  22132193.6324    -940131.93049   -728038.53947                  22132189.5424
        49.7504         38.5004
  22153719.1294    1757115.78549   1362684.88247                  22153716.9694
        48.0004         37.0004
  23440318.4734    2259868.47349   1749773.81647                  23440317.1674
        43.7504         29.7504
 04  6 29 15 34 50.0000000  0  8G 6G15G16G18G21G22G26G29
  21428200.8574    2424013.62149   1879280.83148                  21428198.2274
        49.5004         41.2504
  22873099.3294   -1039978.83249   -804475.90447                  22873097.0804
        45.5004         32.5004
  23887296.5514     937080.19549    725361.35846                  23887293.4194
        38.7504         24.0004
  20680931.9054     272410.49649    211842.56648                  20680928.3584
        51.7504         45.7504
  20809750.7404     277336.90649    215289.93648                  20809746.7134
        49.5004         43.0004
  22130168.3144    -950774.17249   -736331.20847                  22130163.7234
        51.0004         38.5004
  22158832.0024    1783984.93449   1383621.86947                  22158829.8354
        48.0004         36.5004
  23446572.5034    2292732.10549   1775381.82547                  23446570.5544
        44.7504         30.0004
 04  6 29 15 35  0.0000000  0  8G 6G15G16G18G21G22G26G29
  21434781.1314    2458595.80149   1906227.97748                  21434778.7614
        49.5004         41.5004
  22870623.9834   -1052985.10949   -814610.67847                  22870622.3504
        45.7504         31.5004
  23890182.8534     952244.83249    737177.92347                  23890179.0354
        40.0004         26.7504
  20682060.6674     278342.51249    216464.90848                  20682056.8054
        52.5004         45.7504
  20810721.8584     282439.96949    219266.34048                  20810717.1974
        50.0004         43.0004
  22128150.9664    -961373.49649   -744590.42047                  22128146.7464
        50.0004         38.5004
  22163958.9974    1810927.93849   1404616.41747                  22163956.8194
        48.5004         36.7504
  23452836.3054    2325649.11349   1801031.43247                  23452834.6554
        45.0004         30.0004
 04  6 29 15 35 10.0010000  0  8G 6G15G16G18G21G22G26G29
  21441372.9714    2493234.65249   1933219.28948                  21441370.5684
        48.2504         41.2504
  22868151.6374   -1065980.33249   -824736.81047                  22868149.2944
        45.2504         32.2504
  23893079.8334     967471.35949    749042.76646                  23893076.3404
        38.7504         25.2504
  20683199.3164     284326.39549    221127.67648                  20683195.0034
        52.0004         46.0004
  20811698.6524     287572.91849    223266.04348                  20811694.5604
        49.5004         43.0004
  22126142.7404    -971929.27349   -752815.68647                  22126138.5674
        50.7504         38.5004
  22169100.8604    1837949.20349   1425671.94847                  22169098.8454
        48.5004         37.0004
  23459111.3274    2358624.37149   1826726.42047                  23459109.6604
        45.2504         29.0004
 04  6 29 15 35 20.0010000  0  8G 6G15G16G18G21G22G26G29
  21447973.2524    2527919.61349   1960246.51248                  21447971.0714
        49.2504         41.5004
  22865679.8694   -1078965.50449   -834855.11947                  22865678.5034
        44.7504         32.2504
  23895987.9624     982753.06349    760950.54347                  23895984.8604
        39.5004         26.7504
  20684347.0714     290357.34449    225827.11548                  20684343.3054
        51.0004         45.7504
  20812680.2394     292731.23449    227285.50948                  20812676.3944
        50.0004         43.2504
  22124142.0154    -982442.94149   -761008.16047                  22124137.5064
        50.2504         39.0004
  22174256.3314    1865039.57849   1446781.31747                  22174254.2474
        48.0004         36.5004
  23465395.6554    2391647.53949   1852458.75147                  23465393.4054
        45.2504         31.0004
 04  6 29 15 35 30.0010000  0  8G 6G15G16G18G21G22G26G29
  21454583.3014    2562655.13349   1987313.15748                  21454580.5574
        48.5004         42.2504
  22863211.0134   -1091940.84449   -844965.76747                  22863209.4324
        45.5004         32.7504
  23898906.8734     998092.43849    772903.29847                  23898904.3134
        41.0004         27.0004
  20685503.8744     296436.97749    230564.49148                  20685500.1534
        51.5004         45.7504
  20813666.8124     297916.42249    231325.91748                  20813662.8004
        49.2504         43.5004
  22122149.0944    -992914.52349   -769167.82247                  22122145.3394
        50.2504         38.5004
  22179425.3044    1892202.75049   1467947.42547                  22179422.9474
        48.0004         37.0004
  23471689.2614    2424723.02749   1878231.85847                  23471687.3884
        44.5004         30.0004
 04  6 29 15 35 40.0010000  0  8G 6G15G16G18G21G22G26G29
  21461202.8204    2597440.73849   2014418.81348                  21461200.4124
        48.0004         41.5004
  22860742.9994   -1104906.70749   -855069.04947                  22860742.3914
        44.7504         33.2504
  23901837.4214    1013489.03949    784900.63747                  23901833.5434
        40.0004         27.5004
  20686669.8384     302564.97749    235339.54848                  20686666.0134
        52.0004         46.0004
  20814658.7404     303128.06349    235386.93648                  20814654.2564
        49.2504         43.5004
  22120164.8414   -1003344.41049   -777295.00447                  22120160.2834
        50.5004         38.7504
  22184607.8754    1919438.28549   1489169.91247                  22184605.6874
        47.5004         37.7504
  23477993.7254    2457850.29349   1904045.30447                  23477991.6704
        45.0004         29.0004
 04  6 29 15 35 50.0010000  0  8G 6G15G16G18G21G22G26G29
  21467831.8304    2632277.24649   2041564.13148                  21467829.2434
        48.7504         41.5004
  22858278.3514   -1117862.29349   -865164.30447                  22858277.0344
        44.5004         32.7504
  23904777.8144    1028943.64849    796943.16847                  23904775.1054
        39.2504         27.5004
  20687845.5174     308742.05149    240152.85248                  20687841.3474
        52.0004         45.7504
  20815655.8314     308367.06349    239469.26248                  20815651.6464
        50.0004         43.2504
  22118188.1414   -1013731.71549   -785389.00647                  22118183.7984
        50.5004         39.0004
  22189804.7824    1946746.92649   1510449.37047                  22189802.2684
        48.2504         37.5004
  23484307.4994    2491030.16049   1929899.74047                  23484305.1034
        43.2504         29.5004
 04  6 29 15 36  0.0010000  0  8G 6G15G16G18G21G22G26G29
  21474470.4724    2667162.50849   2068747.44048                  21474468.0684
        48.7504         41.7504
  22855813.6464   -1130809.61349   -875253.12447                  22855812.6884
        44.0004         32.7504
  23907729.4984    1044454.23849    809029.32547                  23907726.7464
        40.5004         27.5004
  20689029.8104     314966.10549    245002.75548                  20689026.1654
        52.0004         45.7504
  20816657.6444     313631.47749    243571.41248                  20816653.3574
        50.5004         43.5004
  22116219.2784   -1024078.45749   -793451.39347                  22116214.6354
        50.0004         38.7504
  22195014.3994    1974126.61349   1531784.18447                  22195012.4704
        47.2504         37.0004
  23490630.6374    2524260.41449   1955793.43247                  23490628.9434
        44.2504         29.0004
 04  6 29 15 36 10.0010000  0  8G 6G15G16G18G21G22G26G29
  21481118.1944    2702097.06349   2095969.16248                  21481115.7194
        49.0004         42.2504
  22853351.4984   -1143748.04749   -885334.99447                  22853350.5974
        43.0004         33.0004
  23910691.8494    1060021.29349    821159.50047                  23910689.2254
        38.0004         27.2504
  20690223.4054     321237.73049    249889.74048                  20690219.2944
        52.0004         45.7504
  20817664.4834     318921.91049    247693.82748                  20817660.0504
        49.5004         43.2504
  22114257.9984   -1034384.05949   -801481.72547                  22114253.7314
        50.2504         38.7504
  22200238.9824    2001577.86349   1553174.76847                  22200236.2934
        47.5004         36.5004
  23496963.7454    2557541.53949   1981726.77947                  23496961.9784
        43.0004         28.7504
 04  6 29 15 36 20.0010000  0  8G 6G15G16G18G21G22G26G29
  21487775.3394    2737080.69549   2123229.12048                  21487773.0914
        49.0004         42.2504
  22850891.3234   -1156677.78149   -895410.12947                  22850889.9504
        43.5004         32.5004
  23913664.4054    1075644.58649    833333.49946                  23913662.1824
        39.5004         25.5004
  20691426.0104     327556.73049    254813.62448                  20691421.6754
        52.0004         45.5004
  20818675.9734     324238.28549    251836.45548                  20818671.9094
        49.7504         43.5004
  22112305.2704   -1044648.70749   -809480.14547                  22112300.1964
        50.0004         39.0004
  22205476.1464    2029100.50449   1574620.97147                  22205474.0564
        48.0004         36.2504
  23503306.5614    2590873.52049   2007699.74047                  23503304.7374
        43.2504         28.7504
 04  6 29 15 36 30.0010000  0  8G 6G15G16G18G21G22G26G29
  21494441.4764    2772112.24249   2150526.41648                  21494439.8284
        48.7504         42.0004
  22848432.1064   -1169599.80549   -905479.23447                  22848430.6674
        43.5004         32.5004
  23916648.1684    1091323.04749    845550.45347                  23916645.4624
        40.5004         26.0004
  20692637.0614     333922.02349    259773.60748                  20692633.1554
        52.0004         46.0004
  20819692.4124     329579.65649    255998.56248                  20819687.9374
        50.0004         43.5004
  22110359.3034   -1054873.36749   -817447.41047                  22110354.7284
        50.2504         39.0004
  22210726.3104    2056693.30549   1596121.84447                  22210724.6174
        47.5004         36.0004
  23509659.4634    2624255.03149   2033711.27447                  23509657.5804
        43.7504         28.0004
 04  6 29 15 36 40.0010000  0  8G 6G15G16G18G21G22G26G29
  21501117.1934    2807191.82049   2177861.14248                  21501115.0664
        48.0004         41.7504
  22845975.0294   -1182513.98849   -915542.24447                  22845973.8234
        43.2504         32.7504
  23919642.1004    1107056.73449    857810.48646                  23919639.2194
        41.0004         25.2504
  20693857.0834     340333.65249    264769.67548                  20693852.8974
        52.0004         45.7504
  20820713.4064     334946.00449    260180.13048                  20820709.5804
        50.0004         43.5004
  22108420.9644   -1065057.98049   -825383.46747                  22108416.5334
        50.0004         38.7504
  22215990.9944    2084356.31349   1617677.43747                  22215988.8194
        47.2504         37.5004
  23516020.2294    2657686.05549   2059761.43647                  23516018.8534
        42.7504         27.2504
 04  6 29 15 36 50.0010000  0  8G 6G15G16G18G21G22G26G29
  21507801.3524    2842319.56349   2205233.38548                  21507799.3194
        48.7504         42.0004
  22843519.0304   -1195420.23449   -925599.04347                  22843517.3174
        44.0004         33.2504
  23922646.9254    1122845.71949    870113.57046                  23922644.0184
        38.5004         25.2504
  20695086.4374     346791.73049    269801.93448                  20695082.2354
        52.0004         46.0004
  20821739.5154     340337.36749    264381.18948                  20821734.7714
        50.2504         43.5004
  22106490.5364   -1075202.34849   -833288.15847                  22106486.3254
        50.0004         38.5004
  22221268.0134    2112089.74649   1639287.90347                  22221266.0074
        48.2504         37.0004
  23522391.8864    2691166.82049   2085850.34047                  23522390.1584
        43.2504         27.5004
 04  6 29 15 37  0.0010000  0  8G 6G15G16G18G21G22G26G29
  21514495.7514    2877497.07049   2232644.42548                  21514493.7014
        49.2504         42.5004
  22841065.2584   -1208316.66449   -935648.20647                  22841062.8354
        43.7504         33.2504
  23925662.1554    1138691.76249    882461.10347                  23925659.3714
        40.2504         26.0004
  20696324.1994     353298.12149    274871.85848                  20696320.4774
        51.5004         45.7504
  20822770.4514     345755.69149    268603.25448                  20822766.4284
        50.7504         43.2504
  22104568.1904   -1085304.69149   -841160.10647                  22104563.7244
        50.2504         39.0004
  22226559.5634    2139895.13349   1660954.42947                  22226557.6204
        47.5004         37.0004
  23528773.1624    2724698.98849   2111979.29647                  23528771.1604
        44.0004         27.0004
 04  6 29 15 37 10.0010000  0  8G 6G15G16G18G21G22G26G29
  21521199.4474    2912723.95349   2260093.93948                  21521197.1074
        48.7504         42.2504
  22838613.1434   -1221203.68749   -945690.05247                  22838610.9734
        44.0004         32.7504
  23928688.1964    1154594.37549    894852.72946                  23928685.1844
        39.0004         25.5004
  20697571.3134     359852.39149    279979.07648                  20697567.5304
        51.5004         46.0004
  20823806.9714     351200.68449    272846.11048                  20823802.6384
        49.5004         43.7504
  22102653.6584   -1095365.35949   -848999.58547                  22102649.0104
        50.2504         39.2504
  22231864.3294    2167772.19549   1682676.80747                  22231862.1134
        48.2504         36.7504
  23535163.5714    2758282.10249   2138147.92547                  23535161.4904
        42.7504         28.0004
 04  6 29 15 37 20.0010000  0  8G 6G15G16G18G21G22G26G29
  21527911.9294    2947997.95749   2287580.17048                  21527909.7964
        51.0004         42.0004
  22836162.7364   -1234083.46949   -955726.23247                  22836159.7194
        44.5004         33.5004
  23931725.0254    1170551.35949    907286.73746                  23931721.7084
        40.0004         25.2504
  20698827.4614     366452.28949    285121.85248                  20698823.7644
        50.7504         45.5004
  20824847.5104     356670.15249    277108.02248                  20824843.4244
        51.0004         43.5004
  22100746.9664   -1105386.56649   -856808.32647                  22100742.1734
        50.5004         38.7504
  22237182.3084    2195718.54749   1704453.17947                  22237180.4334
        48.0004         36.5004
  23541563.7124    2791913.72349   2164354.37547                  23541561.4974
        42.5004         27.5004
 04  6 29 15 37 30.0010000  0  8G 6G15G16G18G21G22G26G29
  21534632.7144    2983318.10949   2315102.36648                  21534630.7204
        48.7504         42.0004
  22833713.0884   -1246956.89849   -965757.48347                  22833710.1004
        43.5004         33.0004
  23934771.3614    1186561.58249    919762.23446                  23934768.5094
        40.5004         25.5004
  20700091.7134     373096.77749    290299.37348                  20700088.0094
        50.7504         46.0004
  20825892.8724     362163.16049    281388.29448                  20825888.7654
        49.5004         43.2504
  22098847.3024   -1115369.24649   -864587.02447                  22098842.1764
        49.5004         38.5004
  22242513.4964    2223733.15649   1726282.73947                  22242511.1864
        47.5004         36.7504
  23547971.9784    2825593.00049   2190597.95847                  23547970.4284
        43.2504         27.0004
 04  6 29 15 37 40.0010000  0  8G 6G15G16G18G21G22G26G29
  21541363.2064    3018686.21949   2342661.91348                  21541361.0454
        50.0004         42.0004
  22831264.3274   -1259822.02049   -975782.24747                  22831261.3124
        45.0004         33.0004
  23937828.8584    1202627.20749    932280.85647                  23937825.5644
        42.0004         27.0004
  20701365.2024     379787.84849    295513.18748                  20701361.1984
        51.0004         46.0004
  20826942.8694     367681.72349    285688.47248                  20826938.2134
        51.2504         43.5004
  22096955.2404   -1125311.33649   -872334.10747                  22096950.0504
        50.2504         38.5004
  22247857.8314    2251817.95749   1748166.99047                  22247855.3184
        48.0004         36.2504
  23554391.5194    2859321.78149   2216880.12247                  23554388.7874
        44.0004         27.7504
 04  6 29 15 37 50.0010000  0  8G 6G15G16G18G21G22G26G29
  21548102.5904    3054102.64849   2370259.10948                  21548101.0314
        50.0004         41.5004
  22828818.2594   -1272678.58249   -985800.33547                  22828815.1274
        44.0004         33.2504
  23940896.4674    1218748.27749    944842.76447                  23940893.4914
        40.5004         26.7504
  20702647.2894     386525.76649    300763.51448                  20702643.3254
        51.5004         46.0004
  20827997.9434     373226.18449    290008.83248                  20827993.4104
        51.7504         43.0004
  22095071.4404   -1135212.61749   -880049.38147                  22095066.2664
        51.0004         39.0004
  22253215.6264    2279973.18449   1770106.13847                  22253213.8114
        47.5004         36.5004
  23560818.7134    2893100.29749   2243201.02747                  23560817.1584
        44.0004         28.0004
 04  6 29 15 38  0.0010000  0  8G 6G15G16G18G21G22G26G29
  21554851.5264    3089568.43449   2397894.77748                  21554849.7064
        49.5004         41.2504
  22826373.1314   -1285525.21549   -995810.68347                  22826370.4894
        44.7504         33.2504
  23943975.2174    1234926.05149    957448.78747                  23943972.6534
        41.2504         27.5004
  20703938.7654     393311.71949    306051.28048                  20703934.7514
        51.5004         45.7504
  20829058.2674     378797.80549    294350.35248                  20829054.0684
        51.0004         43.2504
  22093194.9764   -1145071.80549   -887731.86147                  22093189.7224
        51.2504         39.0004
  22258587.1004    2308200.06649   1792101.10747                  22258584.8364
        48.2504         36.5004
  23567256.4434    2926929.68049   2269561.58147                  23567254.1504
        44.0004         28.2504
 04  6 29 15 38 10.0010000  0  8G 6G15G16G18G21G22G26G29
  21561610.0544    3125083.65649   2425568.96448                  21561607.8454
        50.7504         41.2504
  22823930.4894   -1298361.87549  -1005813.27547                  22823927.4994
        43.0004         33.2504
  23947064.5884    1251160.51249    970099.01947                  23947061.4034
        41.0004         27.5004
  20705239.1214     400145.70749    311376.45348                  20705235.2104
        51.0004         46.0004
  20830123.5974     384396.64849    298713.07948                  20830119.1654
        52.0004         43.2504
  22091326.9414   -1154888.83249   -895381.48747                  22091321.6654
        50.2504         39.0004
  22263971.3814    2336498.51649   1814151.82147                  22263969.9324
        48.0004         36.5004
  23573703.3254    2960809.87149   2295961.71347                  23573701.6124
        43.5004         28.5004
 04  6 29 15 38 20.0010000  0  8G 6G15G16G18G21G22G26G29
  21568376.7104    3160641.34049   2453276.24148                  21568374.2614
        51.2504         41.0004
  22821487.8834   -1311195.48049  -1015813.48647                  22821485.4704
        43.7504         33.0004
  23950163.3104    1267444.71549    982787.98447                  23950160.9954
        42.2504         27.0004
  20706547.3154     407020.81349    316733.67948                  20706543.5564
        51.2504         46.0004
  20831193.1424     390015.85249    303091.68148                  20831188.5424
        51.7504         43.5004
  22089465.1804   -1164670.62949   -903003.65348                  22089460.5694
        51.0004         39.5004
  22269369.1564    2364861.52049   1836252.88147                  22269366.7944
        48.2504         37.0004
  23580159.3444    2994733.87149   2322395.99147                  23580156.9914
        44.5004         27.0004
 04  6 29 15 38 30.0010000  0  8G 6G15G16G18G21G22G26G29
  21575151.7064    3196244.23849   2481018.74648                  21575149.7144
        50.2504         41.5004
  22819046.7484   -1324023.05949  -1025808.99347                  22819044.0554
        45.0004         33.5004
  23953272.1914    1283781.48849    995517.92247                  23953269.4724
        40.7504         26.0004
  20707863.9974     413939.89849    322125.18148                  20707859.7534
        52.0004         46.0004
  20832266.2294     395658.36749    307488.44848                  20832262.1694
        52.0004         43.0004
  22087611.2874   -1174414.17249   -910596.02448                  22087606.7164
        51.0004         39.7504
  22274779.5164    2393292.06649   1858406.54247                  22274777.4404
        48.5004         37.0004
  23586623.0314    3028704.53149   2348866.61047                  23586621.3544
        42.2504         28.7504
 04  6 29 15 38 40.0010000  0  8G 6G15G16G18G21G22G26G29
  21581934.8534    3231892.17249   2508796.34048                  21581932.9374
        50.7504         41.7504
  22816606.8324   -1336844.83249  -1035799.97347                  22816604.3604
        42.5004         33.0004
  23956391.1554    1300170.57449   1008288.61447                  23956388.2744
        41.7504         27.2504
  20709188.9154     420902.78149    327550.79948                  20709185.2174
        51.7504         45.7504
  20833344.7454     401324.07049    311903.28648                  20833340.9344
        52.0004         43.2504
  22085764.2134   -1184119.70349   -918158.76047                  22085759.2964
        50.7504         39.2504
  22280202.0444    2421789.77749   1880612.54647                  22280199.9234
        48.2504         36.5004
  23593097.0004    3062721.71549   2375373.50147                  23593094.6714
        43.2504         29.0004
